Weather History for KLBT - November, 2011

Change the Weather History Date:

Sunday, November 27, 2011

  Actual Average Record
Temperature  
Mean Temperature 64 °F 51 °F  
Max Temperature 76 °F 63 °F 79 °F (2001)
Min Temperature 51 °F 39 °F 28 °F (2008)
Degree Days  
Heating Degree Days 1 14  
Month to date heating degree days 253 290  
Since 1 July heating degree days 427 422  
Cooling Degree Days 0 0  
Month to date cooling degree days 18 10  
Year to date cooling degree days 2315 1904  
Growing Degree Days 14 (Base 50)    
Moisture  
Dew Point 53 °F    
Average Humidity 70    
Maximum Humidity 96    
Minimum Humidity 43    
Precipitation  
Precipitation 0.00 in 0.10 in 0.75 in (2013)
Month to date precipitation 1.40 2.58  
Year to date precipitation 38.80 40.34  
Sea Level Pressure  
Sea Level Pressure 30.16 in    
Wind  
Wind Speed 6 mph (SE)    
Max Wind Speed 17 mph    
Max Gust Speed 22 mph    
Visibility 10 miles    
Events      
T = Trace of Precipitation, MM = Missing Value Source: NWS Daily Summary

Daily Weather History Graph

Daily Weather History Graph

Search for Another Location

Airport or City:

Trip Planner

Search our weather history database for the weather conditions in past years. The results will help you decide how hot, cold, wet, or windy it might be!

Date:

Astronomy

Nov. 27, 2011 Rise Set
Actual Time 7:01 AM EST 5:06 PM EST
Civil Twilight 6:33 AM EST 5:33 PM EST
Nautical Twilight 6:02 AM EST 6:04 PM EST
Astronomical Twilight 5:32 AM EST 6:34 PM EST
Moon 9:23 AM EST (11/27) 7:43 PM EST (11/27)
Length of Visible Light 11h 00m
Length of Day
10h 05m
Waxing Crescent, 8% of the Moon is Illuminated
Nov 27
Waxing Crescent
Dec 2
First Quarter
Dec 10
Full
Dec 17
Last Quarter
Dec 24
New

Hourly Weather History & Observations

Time (EST) Temp. Dew Point Humidity Pressure Visibility Wind Dir Wind Speed Gust Speed Precip Events Conditions
12:54 AM 53.1 °F 50.0 °F 89% 30.25 in 10.0 mi Calm Calm - N/A   Overcast
1:54 AM 54.0 °F 51.1 °F 90% 30.25 in 10.0 mi Calm Calm - N/A   Overcast
3:54 AM 55.0 °F 52.0 °F 89% 30.22 in 10.0 mi Calm Calm - N/A   Overcast
4:54 AM 55.0 °F 52.0 °F 89% 30.22 in 10.0 mi ESE 3.5 mph - N/A   Overcast
5:54 AM 57.0 °F 52.0 °F 83% 30.21 in 10.0 mi SE 3.5 mph - N/A   Overcast
6:54 AM 55.9 °F 52.0 °F 87% 30.22 in 10.0 mi Calm Calm - N/A   Overcast
7:54 AM 57.0 °F 53.1 °F 87% 30.22 in 10.0 mi SE 3.5 mph - N/A   Overcast
8:54 AM 63.0 °F 55.0 °F 75% 30.22 in 10.0 mi SE 5.8 mph - N/A   Mostly Cloudy
10:54 AM 72.0 °F 54.0 °F 53% 30.20 in 10.0 mi South 12.7 mph 19.6 mph N/A   Partly Cloudy
11:54 AM 73.0 °F 53.1 °F 49% 30.18 in 10.0 mi SSW 8.1 mph - N/A   Overcast
12:54 PM 73.9 °F 54.0 °F 50% 30.16 in 10.0 mi South 11.5 mph 17.3 mph N/A   Mostly Cloudy
1:54 PM 75.0 °F 52.0 °F 44% 30.13 in 10.0 mi South 6.9 mph 16.1 mph N/A   Scattered Clouds
2:54 PM 73.9 °F 53.1 °F 48% 30.11 in 10.0 mi SSE 12.7 mph 19.6 mph N/A   Scattered Clouds
3:54 PM 73.0 °F 54.0 °F 51% 30.11 in 10.0 mi SSE 15.0 mph 20.7 mph N/A   Partly Cloudy
4:54 PM 70.0 °F 53.1 °F 55% 30.11 in 10.0 mi SSE 9.2 mph - N/A   Clear
5:54 PM 66.9 °F 55.0 °F 66% 30.12 in 10.0 mi SSE 10.4 mph - N/A   Clear
6:54 PM 64.0 °F 55.0 °F 73% 30.11 in 10.0 mi SE 6.9 mph - N/A   Partly Cloudy
7:54 PM 64.0 °F 55.0 °F 73% 30.11 in 10.0 mi SE 6.9 mph - N/A   Clear
8:54 PM 60.1 °F 54.0 °F 80% 30.10 in 10.0 mi ESE 8.1 mph - N/A   Partly Cloudy
9:54 PM 61.0 °F 55.0 °F 81% 30.09 in 10.0 mi SE 5.8 mph - N/A   Mostly Cloudy
10:54 PM 57.9 °F 54.0 °F 87% 30.08 in 10.0 mi ESE 5.8 mph - N/A   Mostly Cloudy
11:54 PM 57.0 °F 53.1 °F 87% 30.07 in 10.0 mi ESE 4.6 mph - N/A   Mostly Cloudy